Nal'chik, Russia
Current Conditions -  °F | °C
As of 1:00 AM on Sunday 26 Oct 2014 (Local Time) from URMN Reporting Station
Haze Haze  
Wind Chill: 23°   Ceiling: 300
Heat Index: 23°   Visibility: 3mi
Dew Point: 23°   Wind: 2mph
Humidity: 100%   Direction: 110°ESE
Pressure: 30.42"   Gusts: NA
Location:  43.49°N, 43.61°E
Report Text: URMN 252200Z 11001MPS 5000 BR OVC003 M05/M05 Q1030 TEMPO 0500FZFG OVC002 RMK QBB100 MT OBSC OBST OBSC QFE735 SC055
Loading
Personal Weather Stations






























Interactive Weather Map
Tropical Storm Tracking
New forecast layout! Learn more

10-Day Weather Forecast

Advertisements
Track Severe Weather on mobile